Vorticity
10 11 13 17 21 24 25 24 21 18 16 14 13 12 11 11 12 12 12 11 10 10 10 10 10 11 12 13 14 15 16 16 16 15 15 15 15 17 21 24 25 25
11 14 17 21 24 24 21 18 15 13 11 11 9 9 8 8 8 8 8 9 8 8 9 9 9 8 8 8 8 8 10 11 12 13 13 12 11 10 10 12 15 19
14 17 21 23 22 19 16 13 12 10 9 8 7 8 10 13 16 18 20 21 22 22 22 22 21 20 18 16 13 10 8 7 7 8 9 10 11 10 9 8 7 9
16 20 22 21 18 14 12 10 9 9 9 11 15 19 24 27 28 29 29 29 30 30 31 32 33 33 33 31 29 25 21 17 14 12 10 10 10 10 10 10 8 8
18 21 21 19 15 13 12 12 14 18 23 28 31 32 31 29 27 25 23 22 22 23 24 25 27 28 29 30 31 33 33 31 29 25 23 22 20 18 16 15 14 12
19 21 21 18 16 16 18 23 29 33 35 34 31 29 26 25 24 22 22 21 20 20 20 19 20 20 21 21 22 24 26 29 30 31 31 31 31 31 29 27 25 23
20 22 21 19 19 23 29 34 35 32 29 27 26 26 27 27 27 27 26 25 23 23 23 22 22 21 21 21 20 20 19 20 21 22 23 24 25 27 30 30 30 30
21 22 20 20 25 31 34 31 26 24 25 26 28 28 28 27 27 27 26 25 24 24 24 24 24 24 24 24 23 22 21 20 19 18 18 18 18 18 20 22 23 25
22 22 21 25 31 33 28 22 22 24 26 26 25 24 24 23 23 23 22 22 22 22 22 22 23 23 24 25 25 24 24 23 23 22 21 20 19 18 17 17 17 18
23 23 24 30 32 26 20 21 24 24 22 21 20 20 19 19 18 18 17 17 17 16 16 16 17 18 19 20 21 22 23 24 23 24 23 23 21 20 20 19 18 17
24 24 28 31 26 19 19 23 23 21 19 18 17 17 16 15 15 14 14 13 13 12 12 11 11 12 12 13 14 14 16 17 18 20 21 22 23 22 22 22 20 18
24 26 30 27 20 17 21 23 21 18 17 16 16 15 14 14 13 13 12 12 12 11 11 11 11 10 10 10 10 11 11 11 12 13 14 16 18 19 21 22 23 22
25 27 29 23 17 19 22 22 19 17 15 15 15 14 13 14 14 13 13 13 13 14 14 14 14 14 14 14 14 14 14 14 13 13 13 13 12 13 14 16 18 20
26 28 26 19 17 20 21 20 18 15 15 15 15 15 14 14 13 13 14 14 14 14 14 14 15 15 15 14 15 15 15 15 16 16 16 16 16 14 13 12 12 13
26 27 23 17 17 20 20 19 16 14 15 16 16 15 14 13 14 14 14 14 14 13 13 13 13 13 13 13 13 13 12 12 13 14 14 15 16 17 17 16 15 12
26 26 20 15 18 20 20 18 15 14 15 15 15 14 14 14 15 14 14 14 14 15 15 16 16 16 15 15 14 14 13 13 13 13 15 16 17 18 19 19 20 18
26 24 18 15 18 20 20 18 15 14 15 15 14 13 13 14 15 15 16 17 17 17 17 17 17 17 16 16 16 15 15 15 16 17 19 20 21 21 21 20 20 20
26 22 16 16 19 20 20 19 15 14 15 14 14 13 13 14 15 16 18 18 18 18 17 17 17 16 16 17 17 17 16 16 17 19 21 22 23 24 24 24 23 22
24 20 15 16 19 20 20 19 16 14 14 13 13 13 14 16 17 17 17 17 17 17 18 19 18 17 18 20 20 19 18 16 17 20 23 26 28 28 28 29 28 27
23 19 14 16 19 19 19 20 17 14 14 13 12 12 14 16 16 16 15 15 16 19 20 21 20 20 22 22 21 19 17 16 18 22 25 27 28 29 28 29 31 31
22 18 14 16 19 19 19 20 17 15 14 12 11 12 15 15 15 14 14 15 18 19 19 18 18 20 23 24 23 22 20 20 22 24 25 25 25 25 24 24 27 30
21 17 14 16 19 19 20 20 18 16 15 11 10 13 14 13 13 13 14 17 18 16 14 13 12 13 17 19 20 22 24 26 24 21 19 20 22 24 24 24 24 25
21 16 13 16 19 19 20 21 19 17 15 11 10 13 13 12 13 14 15 17 16 13 12 12 12 12 14 15 16 18 21 24 24 22 21 22 23 25 27 27 27 27
20 15 13 16 19 19 22 23 20 17 14 10 10 12 12 12 14 14 15 16 15 14 14 15 16 18 19 19 18 17 18 19 21 22 23 22 21 20 22 23 23 24
19 15 13 15 18 20 23 25 23 18 13 10 10 12 12 13 14 13 14 15 14 14 16 17 18 20 19 18 18 17 18 18 16 16 16 17 18 17 17 17 17 19
18 15 13 15 18 20 23 26 25 19 13 10 10 11 12 13 13 14 14 15 14 14 15 17 18 18 17 17 17 16 18 17 14 15 17 18 20 21 20 20 20 19
Height
5481 5474 5468 5462 5456 5450 5444 5438 5433 5428 5423 5420 5415 5411 5407 5403 5399 5398 5397 5397 5397 5397 5396 5395 5393 5391 5390 5389 5389 5389 5390 5391 5392 5393 5394 5395 5396 5397 5398 5400 5401 5403
5469 5462 5455 5449 5443 5437 5431 5426 5420 5415 5410 5406 5401 5396 5393 5388 5384 5381 5380 5379 5380 5380 5379 5378 5377 5376 5374 5373 5373 5373 5374 5376 5377 5378 5379 5380 5381 5382 5384 5385 5387 5388
5458 5450 5443 5436 5430 5425 5419 5414 5409 5403 5398 5393 5388 5382 5378 5373 5368 5364 5362 5361 5360 5361 5361 5360 5360 5359 5357 5356 5356 5357 5358 5360 5361 5362 5363 5364 5365 5366 5368 5370 5372 5374
5446 5438 5431 5425 5419 5413 5407 5402 5396 5390 5384 5379 5374 5369 5363 5359 5354 5350 5347 5345 5343 5343 5343 5343 5343 5342 5340 5339 5339 5340 5341 5343 5344 5345 5345 5347 5348 5350 5352 5354 5356 5358
5435 5428 5421 5414 5407 5401 5394 5388 5382 5376 5369 5364 5359 5354 5350 5346 5342 5337 5334 5331 5329 5328 5328 5328 5328 5327 5325 5324 5324 5324 5325 5326 5327 5328 5328 5329 5331 5332 5335 5337 5340 5342
5424 5416 5409 5402 5395 5387 5379 5373 5366 5360 5354 5349 5345 5341 5337 5333 5330 5326 5323 5319 5317 5315 5314 5314 5314 5314 5313 5312 5311 5311 5311 5311 5312 5312 5313 5314 5315 5316 5318 5320 5323 5326
5412 5404 5396 5388 5381 5373 5365 5358 5352 5346 5341 5337 5333 5329 5325 5322 5319 5316 5312 5309 5307 5304 5303 5301 5301 5301 5301 5301 5300 5299 5299 5299 5298 5299 5299 5300 5301 5302 5303 5304 5307 5310
5399 5391 5382 5374 5366 5359 5352 5345 5340 5335 5330 5326 5322 5318 5314 5311 5308 5306 5303 5300 5297 5295 5293 5291 5290 5289 5290 5290 5289 5288 5287 5287 5287 5287 5287 5287 5288 5289 5290 5291 5293 5296
5387 5378 5370 5362 5354 5347 5341 5335 5330 5325 5320 5316 5312 5309 5305 5302 5299 5297 5294 5292 5289 5287 5285 5282 5281 5280 5279 5279 5278 5277 5277 5276 5276 5275 5275 5276 5276 5277 5278 5279 5281 5284
5376 5367 5358 5351 5344 5337 5332 5326 5321 5316 5312 5307 5304 5300 5297 5294 5291 5289 5286 5284 5282 5279 5277 5275 5273 5271 5270 5269 5268 5268 5267 5266 5266 5265 5265 5265 5265 5265 5266 5267 5269 5271
5365 5357 5348 5341 5334 5328 5323 5317 5313 5308 5304 5300 5297 5293 5290 5287 5284 5281 5279 5276 5274 5272 5270 5268 5265 5263 5262 5260 5259 5258 5258 5257 5256 5256 5255 5255 5255 5255 5255 5255 5257 5259
5355 5347 5339 5333 5327 5321 5315 5310 5305 5301 5297 5293 5290 5286 5283 5280 5277 5274 5272 5269 5267 5265 5262 5260 5258 5256 5254 5252 5251 5249 5248 5248 5247 5246 5246 5246 5245 5245 5245 5245 5245 5247
5346 5338 5331 5325 5319 5313 5308 5303 5299 5294 5291 5287 5283 5280 5276 5274 5270 5268 5265 5262 5260 5257 5255 5252 5250 5248 5246 5244 5242 5241 5239 5238 5237 5236 5236 5236 5236 5236 5235 5235 5235 5237
5337 5330 5323 5317 5312 5306 5301 5296 5292 5288 5284 5281 5277 5274 5270 5267 5264 5261 5258 5255 5253 5250 5247 5245 5243 5241 5238 5236 5234 5232 5231 5229 5227 5226 5226 5226 5225 5225 5224 5224 5225 5227
5329 5322 5316 5310 5305 5299 5294 5289 5285 5281 5278 5274 5271 5268 5264 5261 5258 5254 5251 5249 5246 5243 5240 5237 5235 5233 5231 5228 5226 5224 5222 5220 5219 5217 5216 5216 5215 5214 5214 5214 5215 5216
5322 5315 5310 5304 5298 5292 5287 5282 5278 5275 5271 5268 5265 5261 5258 5255 5252 5248 5245 5242 5239 5236 5233 5230 5228 5225 5223 5220 5217 5215 5213 5212 5210 5209 5207 5206 5204 5203 5203 5202 5203 5204
5315 5309 5303 5297 5292 5286 5281 5276 5272 5268 5265 5262 5259 5255 5252 5248 5245 5242 5239 5236 5233 5229 5226 5223 5220 5217 5215 5212 5209 5207 5205 5203 5201 5200 5198 5196 5194 5193 5192 5191 5191 5192
5308 5302 5297 5291 5285 5280 5275 5270 5265 5262 5259 5256 5253 5249 5246 5242 5239 5236 5233 5229 5226 5223 5220 5217 5214 5210 5207 5205 5202 5199 5196 5193 5192 5190 5189 5187 5185 5183 5182 5180 5179 5180
5301 5296 5290 5284 5279 5274 5269 5264 5259 5256 5252 5250 5247 5243 5240 5236 5233 5230 5227 5223 5220 5217 5214 5211 5207 5204 5201 5198 5196 5192 5189 5185 5183 5182 5180 5178 5175 5173 5171 5170 5168 5169
5295 5289 5284 5278 5272 5267 5262 5258 5254 5250 5247 5244 5241 5237 5234 5231 5228 5224 5221 5218 5215 5212 5209 5205 5201 5198 5195 5192 5189 5186 5182 5179 5176 5175 5173 5170 5167 5164 5162 5161 5160 5159
5288 5283 5277 5271 5266 5261 5256 5251 5248 5244 5241 5238 5235 5232 5229 5226 5223 5219 5216 5213 5210 5206 5204 5200 5196 5193 5190 5187 5183 5180 5176 5173 5171 5169 5166 5163 5160 5158 5155 5154 5153 5152
5282 5276 5271 5265 5260 5255 5250 5246 5242 5239 5236 5233 5230 5227 5223 5221 5218 5214 5211 5209 5205 5202 5199 5195 5191 5188 5186 5182 5178 5175 5172 5169 5166 5164 5160 5158 5155 5153 5150 5149 5148 5147
5276 5270 5265 5259 5254 5249 5244 5240 5236 5234 5231 5228 5225 5222 5219 5216 5213 5210 5207 5205 5201 5197 5194 5191 5188 5185 5182 5178 5175 5171 5168 5165 5162 5159 5156 5153 5151 5149 5147 5145 5144 5143
5270 5264 5259 5254 5248 5243 5239 5234 5231 5229 5226 5223 5221 5218 5215 5212 5209 5206 5203 5201 5197 5194 5191 5188 5184 5181 5178 5175 5172 5168 5165 5162 5159 5155 5153 5150 5147 5145 5143 5141 5140 5139
5264 5259 5253 5248 5243 5238 5233 5229 5226 5224 5221 5218 5216 5213 5211 5208 5205 5203 5200 5197 5194 5191 5188 5185 5182 5178 5175 5172 5169 5166 5162 5159 5156 5153 5150 5147 5144 5142 5140 5138 5137 5135
5258 5253 5248 5242 5237 5232 5227 5223 5220 5218 5216 5214 5211 5209 5207 5204 5202 5199 5197 5194 5191 5188 5185 5182 5179 5176 5173 5170 5167 5163 5160 5157 5154 5151 5148 5145 5142 5140 5138 5136 5134 5133